^^
Station Historical Data
Daily Summary for January 30, 2018 Units:  Metric    English   Both
« Previous Day
Next Day »
Daily Weekly Monthly Yearly Custom
  High: Low: Average:
Temperature: -17.8 °C 15.7 °C 25.9 °C
Dew Point: -17.8 °C -8.2 °C -0.3 °C
Humidity: Humidity% 7% 20%
Wind Speed: 0km/h 0km/h 2.7km/h
Wind Gust: 0km/h - -
Wind- - SSW
Pressure: 0 hPa 999.2 hPa -
Precipitation: 0 mm    
Historical Graphs
 
 
Tabular Data for January 30, 2018
Time Temperature Dew Point Pressure Wind Wind Speed Wind Gust Humidity Rainfall Rate (Hourly) solar Conditions
-17.8 °C -17.8 °C 0 hPa Calm     Humidity% 0 mm SolarRadiationWatts/m^2 W/m2 Conditions
00:04 22.1 °C -0.6 °C 1005.6 hPa Calm     22% 0 mm 0.0 W/m2
00:09 21.9 °C -0.8 °C 1005.6 hPa Calm     22% 0 mm 0.0 W/m2
00:14 21.8 °C -0.3 °C 1005.6 hPa Calm     23% 0 mm 0.0 W/m2
00:20 21.5 °C -0.5 °C 1005.6 hPa Calm     23% 0 mm 0.0 W/m2
00:25 21.3 °C -0.7 °C 1005.6 hPa Calm     23% 0 mm 0.0 W/m2
00:30 21.1 °C -0.8 °C 1005.6 hPa Calm   3.2 km/h 23% 0 mm 0.0 W/m2
00:36 20.9 °C -0.4 °C 1005.6 hPa Calm   3.2 km/h 24% 0 mm 0.0 W/m2
00:41 20.7 °C -0.6 °C 1005.6 hPa Calm     24% 0 mm 0.0 W/m2
00:46 20.6 °C -0.7 °C 1005.3 hPa Calm   3.2 km/h 24% 0 mm 0.0 W/m2
00:51 20.3 °C -0.4 °C 1005.3 hPa Calm   1.6 km/h 25% 0 mm 0.0 W/m2
00:56 20.2 °C -0.5 °C 1005.3 hPa Calm     25% 0 mm 0.0 W/m2
01:01 20.1 °C -0.5 °C 1005.3 hPa Calm   1.6 km/h 25% 0 mm 0.0 W/m2
01:06 19.9 °C -0.2 °C 1005.3 hPa Calm     26% 0 mm 0.0 W/m2
01:11 19.8 °C -0.3 °C 1005.3 hPa Calm   3.2 km/h 26% 0 mm 0.0 W/m2
01:16 19.7 °C -0.3 °C 1005.6 hPa Calm   1.6 km/h 26% 0 mm 0.0 W/m2
01:21 19.7 °C -0.3 °C 1005.6 hPa Calm   3.2 km/h 26% 0 mm 0.0 W/m2
01:26 19.7 °C -0.3 °C 1005.6 hPa Calm   3.2 km/h 26% 0 mm 0.0 W/m2
01:31 19.7 °C -0.3 °C 1005.3 hPa Calm   1.6 km/h 26% 0 mm 0.0 W/m2
01:36 19.7 °C -0.3 °C 1005.3 hPa East 1.4 km/h 8 km/h 26% 0 mm 0.0 W/m2
01:42 19.7 °C -0.3 °C 1005.3 hPa Calm   6.4 km/h 26% 0 mm 0.0 W/m2
01:47 19.7 °C -0.9 °C 1005.6 hPa NE 1.4 km/h 6.4 km/h 25% 0 mm 0.0 W/m2
01:52 19.6 °C -1 °C 1005.6 hPa NE 4.7 km/h 8 km/h 25% 0 mm 0.0 W/m2
01:58 19.6 °C -1 °C 1005.3 hPa Calm   9.7 km/h 25% 0 mm 0.0 W/m2
02:03 19.7 °C -0.3 °C 1005.6 hPa Calm   1.6 km/h 26% 0 mm 0.0 W/m2
02:08 19.7 °C -0.3 °C 1005.3 hPa ENE 3.2 km/h 4.8 km/h 26% 0 mm 0.0 W/m2
02:13 19.6 °C -0.4 °C 1005.3 hPa East 1.4 km/h 3.2 km/h 26% 0 mm 0.0 W/m2
02:18 19.6 °C -0.4 °C 1005.3 hPa Calm   4.8 km/h 26% 0 mm 0.0 W/m2
02:24 19.5 °C -0.5 °C 1005.3 hPa ENE 1.4 km/h 3.2 km/h 26% 0 mm 0.0 W/m2
02:29 19.5 °C -0.5 °C 1005.3 hPa Calm   3.2 km/h 26% 0 mm 0.0 W/m2
02:34 19.5 °C -0.5 °C 1005.3 hPa Calm   4.8 km/h 26% 0 mm 0.0 W/m2
02:40 19.5 °C -0.5 °C 1005.3 hPa Calm   3.2 km/h 26% 0 mm 0.0 W/m2
02:45 19.6 °C -0.4 °C 1005.3 hPa Calm   3.2 km/h 26% 0 mm 0.0 W/m2
02:50 19.6 °C -0.4 °C 1005.6 hPa ENE 1.4 km/h 8 km/h 26% 0 mm 0.0 W/m2
02:56 19.6 °C 0.1 °C 1005.6 hPa Calm   1.6 km/h 27% 0 mm 0.0 W/m2
03:01 19.6 °C -0.4 °C 1005.3 hPa Calm     26% 0 mm 0.0 W/m2
03:06 19.4 °C -0.1 °C 1005 hPa Calm     27% 0 mm 0.0 W/m2
03:12 19.3 °C -0.2 °C 1005 hPa Calm   1.6 km/h 27% 0 mm 0.0 W/m2
03:17 19.2 °C -0.3 °C 1005 hPa Calm     27% 0 mm 0.0 W/m2
03:22 19.2 °C -0.3 °C 1005 hPa Calm   1.6 km/h 27% 0 mm 0.0 W/m2
03:27 19 °C 0.1 °C 1005 hPa Calm     28% 0 mm 0.0 W/m2
03:32 18.8 °C -0.1 °C 1004.6 hPa SSE 3.2 km/h 4.8 km/h 28% 0 mm 0.0 W/m2
03:37 18.7 °C -0.2 °C 1004.6 hPa Calm     28% 0 mm 0.0 W/m2
03:42 18.6 °C 0.2 °C 1005 hPa Calm     29% 0 mm 0.0 W/m2
03:47 18.5 °C 0.1 °C 1005 hPa Calm     29% 0 mm 0.0 W/m2
03:53 18.3 °C 0 °C 1004.6 hPa Calm     29% 0 mm 0.0 W/m2
03:58 18.2 °C -0.1 °C 1004.6 hPa Calm     29% 0 mm 0.0 W/m2
04:04 18.1 °C 0.2 °C 1004.6 hPa Calm     30% 0 mm 0.0 W/m2
04:08 17.9 °C 0.5 °C 1004.6 hPa Calm     31% 0 mm 0.0 W/m2
04:13 17.8 °C 0.4 °C 1004.6 hPa Calm     31% 0 mm 0.0 W/m2
04:18 17.7 °C 0.4 °C 1004.6 hPa Calm   1.6 km/h 31% 0 mm 0.0 W/m2
04:23 17.6 °C 0.3 °C 1004.3 hPa Calm   1.6 km/h 31% 0 mm 0.0 W/m2
04:29 17.4 °C -0.4 °C 1004.6 hPa Calm     30% 0 mm 0.0 W/m2
04:35 17.3 °C -0.4 °C 1004.3 hPa Calm     30% 0 mm 0.0 W/m2
04:40 17.2 °C -0.1 °C 1004.3 hPa Calm   3.2 km/h 31% 0 mm 0.0 W/m2
04:45 17.1 °C -0.2 °C 1004.3 hPa Calm     31% 0 mm 0.0 W/m2
04:50 17.1 °C 0.3 °C 1004.3 hPa Calm   1.6 km/h 32% 0 mm 0.0 W/m2
04:55 17 °C -0.3 °C 1004.3 hPa Calm   1.6 km/h 31% 0 mm 0.0 W/m2
05:00 16.9 °C 0.1 °C 1004.3 hPa Calm   1.6 km/h 32% 0 mm 0.0 W/m2
05:05 16.9 °C -0.3 °C 1004.3 hPa Calm   1.6 km/h 31% 0 mm 0.0 W/m2
05:10 16.8 °C 0 °C 1004.3 hPa Calm   1.6 km/h 32% 0 mm 0.0 W/m2
05:16 16.7 °C -0.1 °C 1003.9 hPa Calm   1.6 km/h 32% 0 mm 0.0 W/m2
05:21 16.7 °C -0.1 °C 1004.3 hPa Calm   1.6 km/h 32% 0 mm 0.0 W/m2
05:26 16.6 °C 0.7 °C 1004.3 hPa Calm     34% 0 mm 0.0 W/m2
05:31 16.5 °C 0.6 °C 1004.3 hPa Calm     34% 0 mm 0.0 W/m2
05:36 16.4 °C 0.5 °C 1004.3 hPa ESE 1.4 km/h 1.6 km/h 34% 0 mm 0.0 W/m2
05:42 16.3 °C 0 °C 1004.3 hPa Calm   1.6 km/h 33% 0 mm 0.0 W/m2
05:47 16.2 °C 0.3 °C 1004.3 hPa Calm   1.6 km/h 34% 0 mm 0.0 W/m2
05:52 16.1 °C 0.2 °C 1004.3 hPa ESE 1.4 km/h 3.2 km/h 34% 0 mm 0.0 W/m2
05:57 16.1 °C -0.2 °C 1004.3 hPa Calm   3.2 km/h 33% 0 mm 0.0 W/m2
06:02 16.1 °C 0.2 °C 1004.3 hPa Calm   1.6 km/h 34% 0 mm 0.0 W/m2
06:07 16 °C 0.5 °C 1004.6 hPa Calm   3.2 km/h 35% 0 mm 0.0 W/m2
06:12 15.9 °C 0.5 °C 1004.3 hPa Calm     35% 0 mm 0.0 W/m2
06:17 15.8 °C 0 °C 1004.6 hPa Calm   1.6 km/h 34% 0 mm 0.0 W/m2
06:22 15.7 °C -0.1 °C 1004.6 hPa Calm   4.8 km/h 34% 0 mm 0.0 W/m2
06:27 15.7 °C 0.3 °C 1004.6 hPa Calm   3.2 km/h 35% 0 mm 0.0 W/m2
06:32 15.7 °C -0.1 °C 1004.6 hPa Calm   3.2 km/h 34% 0 mm 0.0 W/m2
06:38 15.7 °C 0.3 °C 1004.6 hPa Calm   1.6 km/h 35% 0 mm 5.0 W/m2
06:43 15.7 °C 0.3 °C 1004.6 hPa Calm     35% 0 mm 9.0 W/m2
06:49 15.7 °C -0.1 °C 1004.6 hPa Calm   4.8 km/h 34% 0 mm 11.0 W/m2
06:54 15.7 °C 0.3 °C 1004.6 hPa East 3.2 km/h 6.4 km/h 35% 0 mm 12.0 W/m2
06:59 15.7 °C 0.3 °C 1004.6 hPa Calm   3.2 km/h 35% 0 mm 14.0 W/m2
07:04 15.7 °C -0.1 °C 1004.6 hPa Calm   6.4 km/h 34% 0 mm 16.0 W/m2
07:09 15.9 °C 0.8 °C 1004.6 hPa Calm     36% 0 mm 18.0 W/m2
07:14 16 °C 0.5 °C 1004.6 hPa Calm   1.6 km/h 35% 0 mm 19.0 W/m2
07:19 16.2 °C 0.7 °C 1004.6 hPa Calm   1.6 km/h 35% 0 mm 19.0 W/m2
07:25 16.4 °C 0.5 °C 1004.6 hPa NNE 1.4 km/h 1.6 km/h 34% 0 mm 21.0 W/m2
07:30 16.6 °C 0.7 °C 1004.6 hPa Calm   1.6 km/h 34% 0 mm 23.0 W/m2
07:35 16.7 °C 0.8 °C 1005 hPa Calm   6.4 km/h 34% 0 mm 25.0 W/m2
07:40 17 °C 1.4 °C 1005 hPa Calm     35% 0 mm 26.0 W/m2
07:45 17.2 °C 1.2 °C 1005 hPa NE 1.4 km/h 1.6 km/h 34% 0 mm 28.0 W/m2
07:50 17.4 °C 1.4 °C 1005 hPa Calm     34% 0 mm 33.0 W/m2
07:55 17.8 °C 0.9 °C 1005 hPa Calm   1.6 km/h 32% 0 mm 40.0 W/m2
08:00 18.2 °C 1.2 °C 1005 hPa Calm     32% 0 mm 171.0 W/m2
08:05 18.6 °C 1.1 °C 1004.6 hPa Calm   1.6 km/h 31% 0 mm 236.0 W/m2
08:10 19 °C 0.6 °C 1005 hPa Calm     29% 0 mm 346.0 W/m2
08:16 19.4 °C 0.4 °C 1005 hPa Calm     28% 0 mm 373.0 W/m2
08:21 19.9 °C 0.3 °C 1005 hPa Calm   1.6 km/h 27% 0 mm 394.0 W/m2
08:26 20.4 °C 0.2 °C 1005 hPa Calm   1.6 km/h 26% 0 mm 420.0 W/m2
08:31 21.1 °C 0.8 °C 1005 hPa Calm   4.8 km/h 26% 0 mm 438.0 W/m2
08:36 22.1 °C 0.6 °C 1005 hPa North 1.4 km/h 1.6 km/h 24% 0 mm 459.0 W/m2
08:41 23.2 °C 1.5 °C 1005 hPa Calm   1.6 km/h 24% 0 mm 482.0 W/m2
08:46 24.1 °C 0.4 °C 1005 hPa Calm     21% 0 mm 503.0 W/m2
08:51 24.6 °C 0.1 °C 1005 hPa Calm   1.6 km/h 20% 0 mm 520.0 W/m2
08:57 25.2 °C 0.6 °C 1005 hPa Calm   3.2 km/h 20% 0 mm 540.0 W/m2
09:02 25.8 °C -0.3 °C 1005 hPa NNW 1.4 km/h 4.8 km/h 18% 0 mm 563.0 W/m2
09:07 26.3 °C 0.8 °C 1005 hPa Calm   3.2 km/h 19% 0 mm 578.0 W/m2
09:12 26.8 °C 0.5 °C 1005 hPa Calm   3.2 km/h 18% 0 mm 584.0 W/m2
09:17 27.3 °C 0.9 °C 1005.3 hPa Calm   4.8 km/h 18% 0 mm 608.0 W/m2
09:22 27.7 °C 1.2 °C 1005 hPa NW 3.2 km/h 4.8 km/h 18% 0 mm 633.0 W/m2
09:27 28.2 °C 0.8 °C 1005 hPa South 3.2 km/h 8 km/h 17% 0 mm 647.0 W/m2
09:32 28.4 °C 1 °C 1005 hPa North 3.2 km/h 4.8 km/h 17% 0 mm 671.0 W/m2
09:37 28.8 °C 0.5 °C 1005 hPa NNE 11.1 km/h 11.3 km/h 16% 0 mm 677.0 W/m2
09:42 28.9 °C 0.6 °C 1005 hPa North 1.4 km/h 8 km/h 16% 0 mm 687.0 W/m2
09:48 29.2 °C 0.8 °C 1005 hPa NNE 1.4 km/h 6.4 km/h 16% 0 mm 726.0 W/m2
09:53 29.6 °C 0.2 °C 1005 hPa NNW 4.7 km/h 6.4 km/h 15% 0 mm 744.0 W/m2
09:58 29.7 °C -0.6 °C 1005 hPa North 4.7 km/h 6.4 km/h 14% 0 mm 761.0 W/m2
10:03 29.9 °C -0.5 °C 1005 hPa Calm   3.2 km/h 14% 0 mm 779.0 W/m2
10:08 30.1 °C -0.3 °C 1005 hPa ESE 3.2 km/h 4.8 km/h 14% 0 mm 789.0 W/m2
10:13 30.3 °C -0.2 °C 1005 hPa Calm   9.7 km/h 14% 0 mm 809.0 W/m2
10:18 30.3 °C -1.2 °C 1005 hPa ESE 4.7 km/h 8 km/h 13% 0 mm 823.0 W/m2
10:22 30.3 °C -1.2 °C 1005 hPa North 4.7 km/h 12.9 km/h 13% 0 mm 835.0 W/m2
10:27 30.6 °C -1 °C 1005 hPa NNE 3.2 km/h 11.3 km/h 13% 0 mm 847.0 W/m2
10:32 30.8 °C -0.8 °C 1005.3 hPa Calm   14.5 km/h 13% 0 mm 867.0 W/m2
10:37 30.9 °C -0.7 °C 1005 hPa Calm   8 km/h 13% 0 mm 872.0 W/m2
10:42 31.1 °C -1.7 °C 1005 hPa WNW 3.2 km/h 11.3 km/h 12% 0 mm 888.0 W/m2
10:47 31.1 °C -1.7 °C 1005 hPa Calm   4.8 km/h 12% 0 mm 902.0 W/m2
10:53 31.3 °C -1.5 °C 1005 hPa West 1.4 km/h 12.9 km/h 12% 0 mm 916.0 W/m2
10:58 31.4 °C -0.3 °C 1004.6 hPa SE 9.7 km/h 9.7 km/h 13% 0 mm 925.0 W/m2
11:03 31.2 °C -0.5 °C 1004.6 hPa NNE 3.2 km/h 11.3 km/h 13% 0 mm 939.0 W/m2
11:08 31.2 °C -0.5 °C 1004.6 hPa North 3.2 km/h 12.9 km/h 13% 0 mm 951.0 W/m2
11:12 31.4 °C -1.4 °C 1004.6 hPa East 4.7 km/h 11.3 km/h 12% 0 mm 965.0 W/m2
11:13 31.4 °C -0.3 °C 1004.6 hPa ESE 11.1 km/h 12.9 km/h 13% 0 mm 965.0 W/m2
11:19 31.6 °C -1.3 °C 1004.6 hPa West 9.7 km/h 11.3 km/h 12% 0 mm 977.0 W/m2
11:24 31.1 °C -1.7 °C 1004.6 hPa West 9.7 km/h 14.5 km/h 12% 0 mm 986.0 W/m2
11:29 30.9 °C -0.7 °C 1004.6 hPa ESE 3.2 km/h 9.7 km/h 13% 0 mm 993.0 W/m2
11:35 31.1 °C -0.6 °C 1004.6 hPa SW 4.7 km/h 9.7 km/h 13% 0 mm 1002.0 W/m2
11:40 30.8 °C -0.8 °C 1004.3 hPa Calm   3.2 km/h 13% 0 mm 1009.0 W/m2
11:45 30.8 °C -0.8 °C 1004.3 hPa West 7.9 km/h 8 km/h 13% 0 mm 1016.0 W/m2
11:50 31.2 °C -0.5 °C 1004.3 hPa SW 1.4 km/h 3.2 km/h 13% 0 mm 1023.0 W/m2
11:55 31.4 °C -0.3 °C 1004.3 hPa SSW 1.4 km/h 8 km/h 13% 0 mm 1032.0 W/m2
12:00 31.3 °C -0.4 °C 1003.9 hPa SSW 11.1 km/h 12.9 km/h 13% 0 mm 1037.0 W/m2
12:05 31.3 °C 0.6 °C 1003.9 hPa South 7.9 km/h 12.9 km/h 14% 0 mm 1039.0 W/m2
12:10 31.3 °C -0.4 °C 1003.9 hPa SSE 4.7 km/h 9.7 km/h 13% 0 mm 1046.0 W/m2
12:15 31.6 °C -0.2 °C 1003.9 hPa ESE 6.4 km/h 14.5 km/h 13% 0 mm 1049.0 W/m2
12:20 31.8 °C -1.1 °C 1003.9 hPa SW 1.4 km/h 9.7 km/h 12% 0 mm 1053.0 W/m2
12:26 31.7 °C -0.1 °C 1003.9 hPa SW 9.7 km/h 9.7 km/h 13% 0 mm 1053.0 W/m2
12:31 31.8 °C 0 °C 1003.9 hPa SW 6.4 km/h 16.1 km/h 13% 0 mm 1060.0 W/m2
12:36 32.1 °C -0.9 °C 1003.9 hPa North 4.7 km/h 9.7 km/h 12% 0 mm 1062.0 W/m2
12:41 32.4 °C 0.5 °C 1003.6 hPa West 1.4 km/h 14.5 km/h 13% 0 mm 1063.0 W/m2
12:46 32.8 °C 0.8 °C 1003.6 hPa West 4.7 km/h 6.4 km/h 13% 0 mm 1063.0 W/m2
12:51 33.1 °C -0.1 °C 1003.6 hPa Calm   8 km/h 12% 0 mm 1069.0 W/m2
12:56 33.3 °C 0 °C 1003.3 hPa Calm   1.6 km/h 12% 0 mm 1065.0 W/m2
13:01 33.7 °C 0.4 °C 1003.3 hPa WSW 6.4 km/h 12.9 km/h 12% 0 mm 1067.0 W/m2
13:07 33.7 °C -0.8 °C 1003.3 hPa NNW 3.2 km/h 8 km/h 11% 0 mm 1065.0 W/m2
13:12 33.5 °C 0.2 °C 1003.3 hPa WSW 4.7 km/h 16.1 km/h 12% 0 mm 1062.0 W/m2
13:18 33.3 °C 0 °C 1003.3 hPa North 1.4 km/h 4.8 km/h 12% 0 mm 1067.0 W/m2
13:23 33.4 °C 0.1 °C 1002.9 hPa WSW 1.4 km/h 8 km/h 12% 0 mm 1065.0 W/m2
13:28 33.4 °C 0.1 °C 1002.9 hPa WSW 6.4 km/h 11.3 km/h 12% 0 mm 1063.0 W/m2
13:33 33.5 °C 0.2 °C 1002.9 hPa Calm   4.8 km/h 12% 0 mm 1055.0 W/m2
13:38 33.8 °C 0.4 °C 1002.9 hPa WNW 4.7 km/h 11.3 km/h 12% 0 mm 1055.0 W/m2
13:43 33.9 °C 0.5 °C 1002.9 hPa NNW 6.4 km/h 11.3 km/h 12% 0 mm 1048.0 W/m2
13:48 34.3 °C 0.8 °C 1002.6 hPa NW 11.1 km/h 17.7 km/h 12% 0 mm 1042.0 W/m2
13:54 34.5 °C -0.2 °C 1002.6 hPa NNW 7.9 km/h 19.3 km/h 11% 0 mm 1037.0 W/m2
13:59 34.4 °C -0.3 °C 1002.6 hPa NNW 9.7 km/h 14.5 km/h 11% 0 mm 1030.0 W/m2
14:04 34.4 °C -0.3 °C 1002.6 hPa North 3.2 km/h 8 km/h 11% 0 mm 1025.0 W/m2
14:09 34.6 °C -0.2 °C 1002.6 hPa WNW 14.5 km/h 14.5 km/h 11% 0 mm 1023.0 W/m2
14:14 34.6 °C -0.2 °C 1002.3 hPa Calm   1.6 km/h 11% 0 mm 1018.0 W/m2
14:19 34.9 °C 0.1 °C 1002.3 hPa North 6.4 km/h 11.3 km/h 11% 0 mm 1007.0 W/m2
14:24 35.2 °C 0.3 °C 1002.3 hPa West 4.7 km/h 12.9 km/h 11% 0 mm 1002.0 W/m2
14:29 35.3 °C 0.4 °C 1001.9 hPa WSW 3.2 km/h 8 km/h 11% 0 mm 960.0 W/m2
14:35 34.9 °C 0.1 °C 1001.9 hPa West 13 km/h 13 km/h 11% 0 mm 1018.0 W/m2
14:40 34.7 °C -0.1 °C 1001.9 hPa SW 3.2 km/h 9.7 km/h 11% 0 mm 990.0 W/m2
14:45 34.5 °C -0.2 °C 1001.9 hPa South 9.7 km/h 12.9 km/h 11% 0 mm 988.0 W/m2
14:50 34.6 °C -0.2 °C 1001.9 hPa ESE 3.2 km/h 11.3 km/h 11% 0 mm 1020.0 W/m2
14:55 34.8 °C 0 °C 1001.6 hPa ESE 6.4 km/h 9.7 km/h 11% 0 mm 1055.0 W/m2
15:00 35 °C 0.1 °C 1001.6 hPa Calm   9.7 km/h 11% 0 mm 1020.0 W/m2
15:05 35.1 °C 0.2 °C 1001.2 hPa WNW 4.7 km/h 11.3 km/h 11% 0 mm 1035.0 W/m2
15:10 35.4 °C 0.5 °C 1001.2 hPa WNW 6.4 km/h 11.3 km/h 11% 0 mm 1018.0 W/m2
15:15 35.3 °C 0.4 °C 1001.2 hPa West 11.1 km/h 17.7 km/h 11% 0 mm 221.0 W/m2
15:20 34.7 °C 1.1 °C 1001.2 hPa WNW 3.2 km/h 8 km/h 12% 0 mm 657.0 W/m2
15:26 34.5 °C 1 °C 1001.2 hPa WNW 3.2 km/h 8 km/h 12% 0 mm 318.0 W/m2
15:31 34.3 °C 0.8 °C 1000.9 hPa SSE 7.9 km/h 9.7 km/h 12% 0 mm 327.0 W/m2
15:36 34.2 °C 0.7 °C 1000.9 hPa Calm   3.2 km/h 12% 0 mm 294.0 W/m2
15:41 34.1 °C 0.7 °C 1000.9 hPa WNW 6.4 km/h 11.3 km/h 12% 0 mm 345.0 W/m2
15:46 33.9 °C 0.5 °C 1000.6 hPa West 1.4 km/h 16.1 km/h 12% 0 mm 448.0 W/m2
15:51 34 °C 0.6 °C 1000.6 hPa North 3.2 km/h 4.8 km/h 12% 0 mm 283.0 W/m2
15:56 34.3 °C 0.8 °C 1000.6 hPa WSW 3.2 km/h 9.7 km/h 12% 0 mm 415.0 W/m2
16:01 34.4 °C 0.9 °C 1000.2 hPa WSW 3.2 km/h 12.9 km/h 12% 0 mm 209.0 W/m2
16:06 34.4 °C 0.9 °C 1000.6 hPa WNW 3.2 km/h 8 km/h 12% 0 mm 272.0 W/m2
16:12 34.3 °C 0.8 °C 1000.2 hPa WSW 3.2 km/h 8 km/h 12% 0 mm 220.0 W/m2
16:18 34.3 °C 0.8 °C 1000.2 hPa SSE 3.2 km/h 4.8 km/h 12% 0 mm 893.0 W/m2
16:23 34.8 °C 0 °C 1000.2 hPa West 7.9 km/h 8 km/h 11% 0 mm 891.0 W/m2
16:28 34.8 °C 0 °C 1000.2 hPa NNE 1.4 km/h 8 km/h 11% 0 mm 264.0 W/m2
16:33 34.6 °C -0.2 °C 1000.2 hPa Calm   4.8 km/h 11% 0 mm 758.0 W/m2
16:38 34.8 °C 1.2 °C 999.9 hPa SSE 7.9 km/h 8 km/h 12% 0 mm 817.0 W/m2
16:43 35.1 °C 0.2 °C 999.9 hPa SW 1.4 km/h 4.8 km/h 11% 0 mm 243.0 W/m2
16:48 34.9 °C 0.1 °C 999.9 hPa West 3.2 km/h 6.4 km/h 11% 0 mm 577.0 W/m2
16:53 35.1 °C 0.2 °C 999.9 hPa West 4.7 km/h 12.9 km/h 11% 0 mm 248.0 W/m2
16:58 35 °C 0.1 °C 999.9 hPa West 7.9 km/h 9.7 km/h 11% 0 mm 401.0 W/m2
17:03 35.1 °C 0.2 °C 999.9 hPa East 1.4 km/h 1.6 km/h 11% 0 mm 675.0 W/m2
17:09 35.3 °C 0.4 °C 999.5 hPa SW 3.2 km/h 6.4 km/h 11% 0 mm 146.0 W/m2
17:14 34.9 °C 0.1 °C 999.5 hPa Calm   11.3 km/h 11% 0 mm 148.0 W/m2
17:19 34.3 °C -0.4 °C 999.5 hPa WSW 3.2 km/h 9.7 km/h 11% 0 mm 137.0 W/m2
17:24 33.8 °C 0.4 °C 999.5 hPa Calm   4.8 km/h 12% 0 mm 125.0 W/m2
17:29 33.6 °C 0.3 °C 999.5 hPa West 1.4 km/h 3.2 km/h 12% 0 mm 350.0 W/m2
17:35 33.8 °C -0.8 °C 999.5 hPa Calm   4.8 km/h 11% 0 mm 534.0 W/m2
17:40 34.2 °C -1.8 °C 999.5 hPa SW 3.2 km/h 9.7 km/h 10% 0 mm 489.0 W/m2
17:45 34.5 °C -1.5 °C 999.5 hPa Calm   9.7 km/h 10% 0 mm 441.0 W/m2
17:50 34.7 °C -1.4 °C 999.2 hPa South 4.7 km/h 6.4 km/h 10% 0 mm 401.0 W/m2
17:55 34.7 °C -4.4 °C 999.5 hPa WSW 17.7 km/h 17.7 km/h 8% 0 mm 378.0 W/m2
18:01 34.3 °C -6.4 °C 999.5 hPa West 17.7 km/h 25.7 km/h 7% 0 mm 352.0 W/m2
18:06 33.9 °C -6.7 °C 999.5 hPa SW 9.7 km/h 24.1 km/h 7% 0 mm 323.0 W/m2
18:11 33.5 °C -7 °C 999.5 hPa West 11.1 km/h 17.7 km/h 7% 0 mm 306.0 W/m2
18:16 33.1 °C -7.3 °C 999.9 hPa WSW 3.2 km/h 24.1 km/h 7% 0 mm 283.0 W/m2
18:21 33.1 °C -7.3 °C 999.9 hPa WSW 11.1 km/h 20.9 km/h 7% 0 mm 258.0 W/m2
18:26 32.9 °C -7.5 °C 1000.2 hPa SSW 16.3 km/h 20.9 km/h 7% 0 mm 237.0 W/m2
18:31 32.5 °C -7.7 °C 1000.2 hPa WSW 7.9 km/h 19.3 km/h 7% 0 mm 216.0 W/m2
18:36 32.2 °C -8 °C 1000.2 hPa WSW 6.4 km/h 16.1 km/h 7% 0 mm 197.0 W/m2
18:42 32.1 °C -6.3 °C 1000.2 hPa SW 16.3 km/h 16.3 km/h 8% 0 mm 179.0 W/m2
18:47 31.9 °C -8.2 °C 1000.2 hPa SW 3.2 km/h 14.5 km/h 7% 0 mm 155.0 W/m2
18:52 31.6 °C -6.7 °C 1000.2 hPa West 14.3 km/h 17.7 km/h 8% 0 mm 70.0 W/m2
18:57 31.2 °C -7 °C 1000.6 hPa West 9.7 km/h 14.5 km/h 8% 0 mm 39.0 W/m2
19:02 30.8 °C -5.7 °C 1000.9 hPa SSE 11.1 km/h 30.6 km/h 9% 0 mm 39.0 W/m2
19:07 30.4 °C -4.6 °C 1000.9 hPa SW 13 km/h 22.5 km/h 10% 0 mm 26.0 W/m2
19:12 30.1 °C -3.6 °C 1000.9 hPa West 9.7 km/h 20.9 km/h 11% 0 mm 23.0 W/m2
19:17 29.8 °C -3.8 °C 1001.2 hPa South 3.2 km/h 11.3 km/h 11% 0 mm 18.0 W/m2
19:22 29.5 °C -2.9 °C 1001.2 hPa SSW 9.7 km/h 17.7 km/h 12% 0 mm 12.0 W/m2
19:27 29.1 °C -2.1 °C 1001.2 hPa SSW 4.7 km/h 12.9 km/h 13% 0 mm 11.0 W/m2
19:33 28.8 °C -2.4 °C 1001.2 hPa SSW 7.9 km/h 11.3 km/h 13% 0 mm 7.0 W/m2
19:38 28.6 °C -2.5 °C 1001.6 hPa WSW 4.7 km/h 8 km/h 13% 0 mm 5.0 W/m2
19:43 28.3 °C -1.8 °C 1001.6 hPa WSW 1.4 km/h 12.9 km/h 14% 0 mm 0.0 W/m2
19:48 28.2 °C -1.8 °C 1001.6 hPa SW 6.4 km/h 11.3 km/h 14% 0 mm 0.0 W/m2
19:53 28.1 °C -1 °C 1001.9 hPa SW 4.7 km/h 9.7 km/h 15% 0 mm 0.0 W/m2
19:58 27.9 °C -0.2 °C 1001.9 hPa WSW 6.4 km/h 14.5 km/h 16% 0 mm 0.0 W/m2
20:03 27.7 °C -0.4 °C 1001.6 hPa Calm   14.5 km/h 16% 0 mm 0.0 W/m2
20:08 27.5 °C 0.3 °C 1001.9 hPa West 4.7 km/h 8 km/h 17% 0 mm 0.0 W/m2
20:13 27.3 °C 0.9 °C 1001.9 hPa WSW 1.4 km/h 11.3 km/h 18% 0 mm 0.0 W/m2
20:19 27.1 °C 0.7 °C 1001.9 hPa Calm   3.2 km/h 18% 0 mm 0.0 W/m2
20:24 26.9 °C 0.6 °C 1001.9 hPa WSW 4.7 km/h 11.3 km/h 18% 0 mm 0.0 W/m2
20:29 26.7 °C 1.2 °C 1001.9 hPa SW 3.2 km/h 11.3 km/h 19% 0 mm 0.0 W/m2
20:34 26.6 °C 1.1 °C 1002.3 hPa SSW 1.4 km/h 1.6 km/h 19% 0 mm 0.0 W/m2
20:39 26.4 °C 0.9 °C 1002.3 hPa Calm   1.6 km/h 19% 0 mm 0.0 W/m2
20:44 26.3 °C 0.8 °C 1002.3 hPa Calm   8 km/h 19% 0 mm 0.0 W/m2
20:49 26.2 °C 1.5 °C 1002.3 hPa SSW 4.7 km/h 4.8 km/h 20% 0 mm 0.0 W/m2
20:54 26.1 °C 1.4 °C 1002.3 hPa SSW 3.2 km/h 9.7 km/h 20% 0 mm 0.0 W/m2
21:00 25.9 °C 1.2 °C 1002.3 hPa WSW 1.4 km/h 4.8 km/h 20% 0 mm 0.0 W/m2
21:05 25.8 °C 1.8 °C 1002.3 hPa Calm   1.6 km/h 21% 0 mm 0.0 W/m2
21:10 25.7 °C 1.7 °C 1002.3 hPa West 3.2 km/h 8 km/h 21% 0 mm 0.0 W/m2
21:15 25.6 °C 1.6 °C 1002.3 hPa Calm   9.7 km/h 21% 0 mm 0.0 W/m2
21:20 25.4 °C 1.5 °C 1002.3 hPa SW 1.4 km/h 8 km/h 21% 0 mm 0.0 W/m2
21:25 25.3 °C 1.4 °C 1002.3 hPa West 1.4 km/h 9.7 km/h 21% 0 mm 0.0 W/m2
21:30 25.2 °C 1.3 °C 1002.6 hPa Calm   1.6 km/h 21% 0 mm 0.0 W/m2
21:35 25.2 °C 1.3 °C 1002.6 hPa Calm   3.2 km/h 21% 0 mm 0.0 W/m2
21:40 25.1 °C 1.2 °C 1002.6 hPa SSE 6.4 km/h 6.4 km/h 21% 0 mm 0.0 W/m2
21:46 25 °C 1.2 °C 1002.6 hPa WSW 3.2 km/h 8 km/h 21% 0 mm 0.0 W/m2
21:51 24.9 °C 1.1 °C 1002.6 hPa Calm   1.6 km/h 21% 0 mm 0.0 W/m2
21:56 24.9 °C 1.7 °C 1002.6 hPa Calm   1.6 km/h 22% 0 mm 0.0 W/m2
22:01 24.7 °C 1.6 °C 1002.9 hPa SSW 1.4 km/h 3.2 km/h 22% 0 mm 0.0 W/m2
22:06 24.7 °C 1.6 °C 1002.9 hPa SW 3.2 km/h 12.9 km/h 22% 0 mm 0.0 W/m2
22:11 24.8 °C 1.6 °C 1002.9 hPa SSE 4.7 km/h 17.7 km/h 22% 0 mm 0.0 W/m2
22:16 24.9 °C 1.1 °C 1002.9 hPa SW 1.4 km/h 8 km/h 21% 0 mm 0.0 W/m2
22:21 24.9 °C 1.1 °C 1002.9 hPa West 3.2 km/h 8 km/h 21% 0 mm 0.0 W/m2
22:26 25 °C 1.2 °C 1002.9 hPa West 7.9 km/h 8 km/h 21% 0 mm 0.0 W/m2
22:32 25 °C 1.2 °C 1002.9 hPa Calm   9.7 km/h 21% 0 mm 0.0 W/m2
22:37 25 °C 1.2 °C 1003.3 hPa South 3.2 km/h 3.2 km/h 21% 0 mm 0.0 W/m2
22:42 24.9 °C 1.7 °C 1002.9 hPa SE 1.4 km/h 3.2 km/h 22% 0 mm 0.0 W/m2
22:47 24.9 °C 1.7 °C 1003.3 hPa Calm   1.6 km/h 22% 0 mm 0.0 W/m2
22:50 24.8 °C 1.6 °C 1003.3 hPa SE 1.4 km/h 3.2 km/h 22% 0 mm 0.0 W/m2
22:55 24.7 °C 1.6 °C 1003.3 hPa SW 3.2 km/h 3.2 km/h 22% 0 mm 0.0 W/m2
23:00 24.6 °C 2.1 °C 1003.3 hPa Calm   1.6 km/h 23% 0 mm 0.0 W/m2
23:05 24.5 °C 1.4 °C 1003.3 hPa ESE 3.2 km/h 4.8 km/h 22% 0 mm 0.0 W/m2
23:10 24.3 °C 1.2 °C 1003.3 hPa SSE 3.2 km/h 4.8 km/h 22% 0 mm 0.0 W/m2
23:15 24.2 °C 1.1 °C 1003.3 hPa Calm   6.4 km/h 22% 0 mm 0.0 W/m2
23:20 24.1 °C 1.7 °C 1003.3 hPa SSE 4.7 km/h 6.4 km/h 23% 0 mm 0.0 W/m2
23:25 23.9 °C 1.5 °C 1003.3 hPa South 1.4 km/h 9.7 km/h 23% 0 mm 0.0 W/m2
23:30 23.8 °C 1.4 °C 1003.3 hPa SSE 6.4 km/h 14.5 km/h 23% 0 mm 0.0 W/m2
23:36 23.7 °C 1.3 °C 1003.3 hPa South 3.2 km/h 6.4 km/h 23% 0 mm 0.0 W/m2
23:41 23.7 °C 1.3 °C 1003.3 hPa Calm   3.2 km/h 23% 0 mm 0.0 W/m2
23:46 23.6 °C 1.3 °C 1003.3 hPa Calm   3.2 km/h 23% 0 mm 0.0 W/m2
23:52 23.4 °C 1.7 °C 1003.3 hPa Calm     24% 0 mm 0.0 W/m2
23:57 23.3 °C 1.6 °C 1003.3 hPa Calm   1.6 km/h 24% 0 mm 0.0 W/m2
Olympia, Windhoek, Namibia
Compliments of Weather Underground - 3.25 mb